This demonstration page uses our WeatherBlox Daily Observations layout. Learn more.

40.92945, -100.16068

Hourly Observations for May 14, 2017

Temp ( °F °C ) Dew Point ( °F °C ) Humidity (%) Winds ( mph kmh ) Pressure ( in mb ) Visibility ( mi km ) Precip ( " mm )
12:15 am 00:15 Clear 63 17.2 50 10 63 63 SSE 15 24 29.62 1003 10 16.09344 0 0
12:35 am 00:35 Clear 63 17 50 10 64 64 SSE 17 28 29.62 1003 10 16.09344 0 0
12:55 am 00:55 Clear 62 16.6 50 10 65 65 SSE 15 24 29.65 1004 10 16.09344 0 0
1:15 am 01:15 Clear 62 16.5 50 10.2 67 67 SSE 16 26 29.65 1004 10 16.09344 0 0
1:35 am 01:35 Clear 61 16.2 50 10.2 68 68 SSE 14 22 29.65 1004 10 16.09344 0 0
1:55 am 01:55 Clear 61 16 50 10.2 69 69 SSE 13 20 29.65 1004 10 16.09344 0 0
2:15 am 02:15 Clear 61 16 50 10.2 69 69 SSE 13 20 29.62 1003 10 16.09344 0 0
2:35 am 02:35 Clear 61 16 50 10.2 69 69 SSE 16 26 29.62 1003 10 16.09344 0 0
2:55 am 02:55 Clear 60 15.8 51 10.3 70 70 SSE 14 22 29.62 1003 10 16.09344 0 0
3:15 am 03:15 Clear 60 15.7 51 10.3 70 70 SSE 15 24 29.62 1003 10 16.09344 0 0
3:35 am 03:35 Clear 60 15.8 51 10.3 70 70 SSE 14 22 29.62 1003 10 16.09344 0 0
3:55 am 03:55 Clear 60 15.6 51 10.3 71 71 S 13 20 29.62 1003 10 16.09344 0 0
4:15 am 04:15 Clear 60 15.5 50 10.2 71 71 S 13 20 29.59 1002 10 16.09344 0 0
4:35 am 04:35 Clear 59 15.2 50 10.2 72 72 S 12 19 29.62 1003 10 16.09344 0 0
4:55 am 04:55 Clear 60 15.3 50 10.1 71 71 SSE 7 11 29.62 1003 10 16.09344 0 0
5:15 am 05:15 Clear 58 14.7 50 10 74 74 S 6 9 29.62 1003 10 16.09344 0 0
5:35 am 05:35 Clear 59 14.9 50 10 73 73 S 14 22 29.62 1003 10 16.09344 0 0
5:55 am 05:55 Clear 58 14.2 50 10 76 76 S 8 13 29.62 1003 10 16.09344 0 0
6:15 am 06:15 Clear 56 13.1 49 9.7 80 80 S 8 13 29.65 1004 10 16.09344 0 0
6:35 am 06:35 Sunny 55 13 50 9.8 81 81 S 6 9 29.68 1005 10 16.09344 0 0
6:55 am 06:55 Sunny 57 14 50 9.9 77 77 SW 3 6 29.65 1004 10 16.09344 0 0
7:15 am 07:15 Sunny 56 13.5 50 10.1 80 80 Calm 29.65 1004 10 16.09344 0 0
7:35 am 07:35 Sunny 58 14.2 52 10.9 81 81 Calm 29.65 1004 10 16.09344 0 0
7:55 am 07:55 Sunny 59 15 52 11.2 78 78 NW 5 7 29.65 1004 10 16.09344 0 0
8:15 am 08:15 Sunny 61 16.1 52 11.2 73 73 WNW 6 9 29.65 1004 10 16.09344 0 0
8:35 am 08:35 Sunny 62 16.7 53 11.4 71 71 NW 6 9 29.65 1004 10 16.09344 0 0
8:55 am 08:55 Sunny 63 17.3 53 11.6 69 69 NW 6 9 29.62 1003 10 16.09344 0 0
9:15 am 09:15 Sunny 65 18.1 54 12 68 68 NW 8 13 29.65 1004 10 16.09344 0 0
9:35 am 09:35 Sunny 67 19.5 55 12.6 65 65 NNW 10 17 29.65 1004 10 16.09344 0 0
9:55 am 09:55 Sunny 69 20.7 55 12.8 61 61 NNW 13 20 29.62 1003 10 16.09344 0 0
10:15 am 10:15 Sunny 71 21.5 55 12.5 57 57 N 17 28 29.62 1003 10 16.09344 0 0
10:35 am 10:35 Sunny 71 21.9 55 12.9 57 57 N 18 30 29.62 1003 10 16.09344 0 0
10:55 am 10:55 Sunny 73 23 55 12.6 52 52 N 20 31 29.62 1003 10 16.09344 0 0
11:15 am 11:15 Sunny 74 23.3 55 12.7 51 51 N 16 26 29.62 1003 10 16.09344 0 0
11:35 am 11:35 Sunny 75 24 55 12.7 49 49 N 17 28 29.65 1004 10 16.09344 0 0
11:55 am 11:55 Sunny 76 24.6 55 12.9 48 48 N 17 28 29.62 1003 10 16.09344 0 0
12:15 pm 12:15 Sunny 77 25 56 13.2 48 48 N 12 19 29.62 1003 10 16.09344 0 0
12:35 pm 12:35 Sunny 78 25.5 55 12.9 46 46 NNE 16 26 29.62 1003 10 16.09344 0 0
12:55 pm 12:55 Sunny 78 25.5 54 12.4 44 44 N 17 28 29.65 1004 10 16.09344 0 0
1:15 pm 13:15 Sunny 78 25.7 54 12.1 43 43 N 14 22 29.62 1003 10 16.09344 0 0
1:35 pm 13:35 Sunny 79 26.2 55 12.7 43 43 NNE 18 30 29.65 1004 10 16.09344 0 0
1:55 pm 13:55 Sunny 79 26 55 12.5 43 43 N 13 20 29.62 1003 10 16.09344 0 0
2:15 pm 14:15 Sunny 79 26.1 55 12.7 43 43 N 20 31 29.62 1003 10 16.09344 0 0
2:35 pm 14:35 Sunny 79 26.3 56 13.1 44 44 NNE 12 19 29.62 1003 10 16.09344 0 0
2:55 pm 14:55 Sunny 80 26.5 56 13.6 45 45 N 15 24 29.65 1004 10 16.09344 0 0
3:15 pm 15:15 Sunny 80 26.6 56 13.4 44 44 NNE 13 20 29.65 1004 10 16.09344 0 0
3:35 pm 15:35 Sunny 81 27 56 13.4 43 43 NNE 13 20 29.62 1003 10 16.09344 0 0
3:55 pm 15:55 Sunny 80 26.7 57 13.9 45 45 N 14 22 29.62 1003 10 16.09344 0 0
4:15 pm 16:15 Sunny 80 26.7 56 13.3 44 44 NNE 13 20 29.62 1003 10 16.09344 0 0
4:35 pm 16:35 Sunny 80 26.7 57 13.9 45 45 NNE 15 24 29.62 1003 10 16.09344 0 0
4:55 pm 16:55 Sunny 80 26.7 57 13.7 45 45 NNE 16 26 29.62 1003 10 16.09344 0 0
5:15 pm 17:15 Sunny 80 26.7 57 14 46 46 NNE 12 19 29.62 1003 10 16.09344 0 0
5:35 pm 17:35 Sunny 80 26.6 57 13.7 45 45 N 14 22 29.62 1003 10 16.09344 0 0
5:55 pm 17:55 Sunny 80 26.5 56 13.6 45 45 NNE 9 15 29.62 1003 10 16.09344 0 0
6:15 pm 18:15 Sunny 79 26.2 55 12.8 43 43 NNE 12 19 29.62 1003 10 16.09344 0 0
6:35 pm 18:35 Sunny 79 26.2 56 13.1 44 44 ENE 9 15 29.65 1004 10 16.09344 0 0
6:55 pm 18:55 Sunny 78 25.6 56 13.3 47 47 ENE 9 15 29.65 1004 10 16.09344 0 0
7:15 pm 19:15 Sunny 78 25.4 56 13.4 47 47 ENE 13 20 29.65 1004 10 16.09344 0 0
7:35 pm 19:35 Sunny 77 25.1 55 12.5 46 46 NE 9 15 29.65 1004 10 16.09344 0 0
7:55 pm 19:55 Sunny 76 24.3 56 13.6 51 51 ENE 9 15 29.68 1005 10 16.09344 0 0
8:15 pm 20:15 Sunny 74 23.1 56 13.6 55 55 ENE 6 9 29.68 1005 10 16.09344 0 0
8:35 pm 20:35 Sunny 70 21.3 56 13.6 62 62 ENE 7 11 29.68 1005 10 16.09344 0 0
8:55 pm 20:55 Clear 69 20.8 56 13.5 63 63 NE 5 7 29.74 1007 10 16.09344 0 0
9:15 pm 21:15 Clear 68 20.1 56 13.1 64 64 NE 7 11 29.74 1007 10 16.09344 0 0
9:35 pm 21:35 Clear 66 18.9 55 13 69 69 ENE 7 11 29.74 1007 10 16.09344 0 0
9:55 pm 21:55 Clear 66 18.7 56 13.1 70 70 ENE 7 11 29.74 1007 10 16.09344 0 0
10:15 pm 22:15 Clear 65 18.6 55 13 70 70 NE 7 11 29.74 1007 10 16.09344 0 0
10:35 pm 22:35 Clear 66 18.7 55 13 70 70 NE 10 17 29.71 1006 10 16.09344 0 0
10:55 pm 22:55 Clear 66 18.8 55 13 69 69 ENE 7 11 29.74 1007 10 16.09344 0 0
11:15 pm 23:15 Clear 63 17 55 12.7 76 76 ENE 8 13 29.77 1008 10 16.09344 0 0
11:35 pm 23:35 Clear 62 16.5 55 12.6 78 78 ENE 7 11 29.77 1008 10 16.09344 0 0
11:55 pm 23:55 Clear 63 17.1 55 13 77 77 ENE 7 11 29.77 1008 10 16.09344 0 0

Powered by AerisWeather